Wind_Speed
11 10 9 8 8 7 7 8 8 8 7 6 4 3 3 4 4 4 4 6 7 7 6 6 6 6 4 3 3 5 4 3 2 2 3 3 3 3 5 4 2 3 5 4 2 2 2 3 5 8 11 13 11 6 2 4 5 5 3 3 4 5 5
9 9 9 9 9 8 6 7 7 7 6 6 4 2 3 4 4 4 4 5 6 6 6 6 6 6 6 5 4 5 5 5 4 3 3 3 3 2 5 5 4 6 6 7 6 5 4 4 3 2 6 12 17 18 14 8 3 1 0 1 1 1 3
10 10 10 10 9 7 6 6 6 6 6 5 5 4 5 5 4 4 4 4 5 5 5 5 6 6 6 6 7 7 7 7 7 5 4 4 4 4 3 4 7 8 6 7 6 5 7 8 5 2 4 7 11 17 22 21 17 13 9 6 3 3 4
10 10 11 11 9 8 7 7 6 6 6 6 6 6 6 6 4 3 3 4 5 5 5 4 4 5 6 7 8 10 11 11 11 10 9 8 8 10 10 9 10 9 8 8 5 5 8 8 5 3 6 7 7 12 20 25 26 23 19 16 12 10 9
10 9 10 9 9 9 8 8 7 6 6 6 7 7 6 5 4 2 2 4 5 5 4 4 4 6 8 9 9 10 11 11 12 12 13 13 13 14 14 14 14 13 12 11 8 9 10 10 9 5 4 5 5 9 14 20 26 27 25 23 21 19 17
11 10 9 9 9 9 8 7 6 6 6 6 6 6 6 5 3 3 4 5 6 5 5 5 6 8 9 9 9 9 9 10 10 10 13 14 13 14 14 13 13 13 14 12 10 10 10 11 12 7 4 4 5 7 10 13 17 22 25 24 22 21 20
13 11 10 10 10 9 6 5 5 5 5 5 6 6 6 4 3 4 5 7 7 7 7 7 8 8 8 8 8 8 8 9 9 10 12 13 13 12 12 11 12 13 14 13 12 12 11 11 10 6 5 6 7 8 10 13 15 16 18 21 20 19 18
15 12 11 11 10 8 6 4 4 4 3 4 5 6 5 4 3 4 5 6 7 7 7 7 8 8 8 8 8 8 9 9 9 10 11 11 12 12 11 12 13 14 14 13 12 13 12 12 12 8 6 5 6 6 6 11 16 16 13 15 18 18 17
16 14 13 12 11 8 5 3 3 3 2 2 4 5 5 4 4 4 3 3 4 4 4 5 6 7 7 8 8 9 10 9 9 10 10 10 11 12 12 12 13 15 14 13 13 13 12 13 13 12 9 6 5 3 2 5 9 12 13 14 16 18 17
17 15 14 13 12 9 4 2 4 4 3 3 4 6 6 5 4 4 3 2 1 1 1 2 4 5 6 7 7 8 9 8 8 9 9 10 11 12 12 12 13 14 13 12 13 12 12 12 12 13 13 11 8 5 2 2 2 6 11 14 15 16 16
18 16 14 12 12 10 7 4 7 5 4 4 5 6 6 6 5 4 4 3 3 2 1 1 1 3 4 5 6 7 7 7 7 9 8 9 11 11 12 12 12 13 12 11 11 10 10 10 10 11 12 13 12 9 5 3 1 4 9 12 14 15 14
20 17 14 13 14 14 11 8 8 6 5 5 6 6 7 6 6 6 6 6 5 4 3 2 1 0 1 3 4 5 6 5 6 8 8 9 10 10 11 11 10 10 9 8 9 9 8 9 9 10 11 11 13 13 9 6 3 3 7 10 12 12 13
22 19 17 17 17 16 14 11 9 7 6 6 6 7 6 6 6 6 7 8 8 7 6 5 3 2 2 0 2 3 4 3 4 6 7 8 9 8 9 10 9 8 7 7 8 8 8 9 8 9 10 10 11 11 10 10 6 4 6 8 9 11 12
24 21 20 19 18 18 16 13 11 9 8 8 7 7 7 7 6 6 7 9 10 10 9 8 6 5 4 3 1 1 2 2 2 3 5 6 7 6 6 7 8 7 6 6 7 7 7 7 7 7 8 8 10 9 9 11 9 6 5 5 8 11 12
22 20 20 20 19 19 18 14 12 12 12 12 11 10 9 9 8 8 8 9 10 11 11 10 9 8 6 5 4 3 2 2 2 2 2 4 5 4 3 4 5 5 5 5 6 6 6 6 5 6 7 7 9 10 9 9 8 6 5 5 8 12 13
19 19 21 22 21 21 19 16 13 13 15 15 14 13 12 10 10 10 10 10 10 11 12 12 12 11 9 8 6 5 5 4 4 4 3 3 4 3 2 3 3 3 3 4 5 5 5 5 4 5 7 8 8 9 9 9 8 7 7 6 8 13 14
20 20 22 23 23 21 19 17 15 15 17 16 14 14 14 14 13 13 12 11 11 11 13 14 14 14 13 11 9 8 7 7 7 6 5 5 5 4 3 3 3 3 3 3 4 5 4 4 4 5 6 7 8 8 9 9 9 8 8 7 9 12 13
21 21 24 24 23 22 20 18 16 15 14 11 10 12 13 15 16 15 13 12 13 13 14 15 17 17 17 15 12 11 10 9 9 9 9 8 7 7 6 5 4 4 4 3 3 4 3 3 3 4 5 6 7 7 7 8 9 8 8 9 9 10 12
19 20 23 24 23 23 22 18 15 13 11 8 10 12 13 15 16 16 14 14 16 16 16 18 18 20 22 20 15 13 13 11 11 12 12 11 10 10 9 8 7 7 7 6 5 4 3 3 3 2 3 4 5 5 5 6 7 7 8 9 9 9 11
16 16 19 22 23 23 21 18 15 14 12 14 16 16 15 13 12 14 16 18 20 20 18 17 17 18 23 24 19 16 15 14 13 14 14 14 13 13 12 11 11 10 10 9 8 7 6 5 3 2 1 1 3 3 4 5 5 6 7 7 8 10 10
16 15 17 20 22 22 19 16 15 14 13 15 16 15 15 12 10 14 20 22 22 21 19 19 19 19 22 24 23 18 15 15 15 16 17 17 16 15 14 14 14 13 13 12 11 9 8 6 4 3 2 0 1 2 3 4 4 4 5 6 8 9 10
16 15 16 18 19 19 16 15 14 13 12 13 12 13 14 15 16 20 23 22 20 20 20 20 18 16 16 19 19 17 15 15 16 17 18 18 18 18 17 17 16 16 16 15 13 12 9 7 5 4 3 1 2 3 3 3 4 4 5 7 8 10 12
16 16 16 16 16 15 15 14 13 12 11 11 11 12 15 16 18 21 20 19 18 18 19 19 16 14 14 15 15 15 15 15 15 16 17 17 18 19 19 20 19 18 18 18 16 13 11 9 7 6 3 1 2 3 4 4 4 4 5 7 8 10 12
14 15 15 15 15 14 14 13 11 10 10 9 9 10 12 13 15 17 18 18 17 17 17 17 17 15 13 12 12 12 12 12 12 13 14 15 16 17 18 20 20 20 21 20 17 14 13 12 10 7 5 2 1 2 2 3 3 4 5 6 7 8 10
12 14 14 13 12 11 11 11 10 9 7 7 7 8 9 10 11 13 15 16 14 13 13 13 12 10 7 7 7 8 9 10 10 12 13 14 15 16 17 18 19 20 21 21 18 16 15 13 11 8 5 2 2 2 2 2 3 4 6 6 7 7 8
9 10 11 10 9 7 7 7 6 6 5 5 7 8 8 8 7 9 11 11 9 8 7 7 6 4 3 3 3 4 5 7 8 10 11 13 15 17 17 17 18 19 20 19 18 17 17 15 13 9 6 4 4 3 3 3 4 5 7 7 7 7 8
6 7 7 8 7 6 5 5 5 6 6 7 7 6 5 5 4 5 5 5 5 3 3 3 2 2 2 2 1 2 3 5 7 8 10 11 13 15 15 16 16 17 17 17 17 18 18 17 13 9 7 6 5 4 4 4 5 6 7 7 7 7 8
5 6 7 7 8 7 7 8 9 10 10 10 9 8 7 6 5 4 2 0 1 2 2 3 3 3 3 3 2 3 4 5 7 9 10 10 11 12 13 13 14 15 15 16 17 19 19 16 12 9 8 7 7 6 6 6 6 7 7 7 7 7 8
3 5 6 6 7 9 11 12 13 13 11 10 8 7 6 5 4 3 2 2 2 2 3 4 4 5 5 4 4 4 4 5 6 8 8 8 8 9 10 10 10 12 13 14 17 19 16 13 10 9 9 9 8 7 6 5 5 5 5 6 7 8 9
4 5 6 7 9 10 11 11 11 10 10 9 7 5 4 3 3 3 3 3 3 3 4 4 5 6 6 6 5 5 4 4 4 6 6 6 5 5 5 5 6 8 11 14 18 18 13 11 10 9 9 8 7 5 4 4 5 5 6 7 9 10 11
7 8 9 9 9 9 9 9 9 9 8 7 6 5 4 5 4 4 5 7 7 6 5 4 4 5 6 7 6 5 5 4 2 3 4 4 4 3 3 2 3 6 10 14 17 15 12 10 9 8 8 7 5 4 5 5 6 6 7 9 10 11 12
4 7 9 11 11 10 9 9 9 9 8 6 4 5 5 3 2 4 7 9 10 9 7 5 4 4 5 6 6 5 5 4 2 1 1 1 1 1 1 2 3 5 8 11 12 11 10 8 7 7 7 6 5 5 6 6 7 8 9 10 11 11 12
4 3 5 7 9 9 9 9 8 8 6 5 4 4 4 1 1 3 6 8 10 10 7 5 4 4 4 5 5 5 5 5 3 4 5 5 5 6 7 7 7 7 7 7 7 7 7 6 6 5 5 4 4 4 5 7 8 10 11 11 12 12 13
14 12 10 10 9 8 8 8 8 7 7 7 6 6 5 3 3 2 4 6 8 8 7 5 4 3 2 4 5 5 5 5 5 6 7 8 8 8 9 9 8 7 6 5 5 4 3 2 2 3 3 3 4 5 6 8 9 10 10 11 12 12 13
17 16 15 15 13 12 12 11 11 10 9 9 8 8 7 5 5 4 3 3 4 6 6 5 4 2 2 3 4 5 6 6 6 6 7 9 9 9 9 8 7 6 4 3 2 1 1 2 3 3 4 4 5 6 7 8 9 9 10 12 13 15 16
18 17 17 16 16 16 16 15 13 12 11 10 10 9 8 7 6 6 4 3 2 2 4 4 3 2 2 3 4 5 6 7 7 7 7 9 9 9 8 7 6 4 3 1 0 2 2 3 3 3 3 4 4 5 6 8 9 11 12 14 16 18 19
21 21 20 19 19 19 19 18 16 14 13 12 12 11 10 9 8 7 7 6 5 3 1 2 3 3 3 4 5 6 7 8 8 8 8 9 10 9 8 7 5 3 1 0 1 2 2 2 2 2 2 3 4 6 7 9 10 12 14 15 17 18 19
Wind_Direction
177 174 175 171 158 149 137 123 112 105 102 96 92 96 119 132 123 116 136 138 129 123 112 103 96 92 93 117 160 171 176 181 186 204 216 218 213 206 202 181 132 117 104 93 83 84 131 96 61 61 63 63 62 50 3 246 240 246 286 315 282 283 305
175 174 172 170 165 163 153 134 123 111 106 99 90 99 129 133 117 108 125 134 129 125 120 108 95 92 90 97 122 142 157 157 151 168 182 174 166 175 209 196 128 93 78 68 66 70 82 92 93 67 59 65 63 59 61 69 73 148 220 32 37 339 337
172 173 171 172 170 172 164 143 129 117 112 106 103 121 134 133 121 111 123 134 135 136 132 116 98 92 89 94 104 108 115 118 117 123 122 126 122 92 117 157 121 100 81 65 57 67 79 84 97 94 47 59 63 61 65 70 72 74 81 91 97 74 53
183 184 182 180 178 177 166 147 133 122 116 112 119 130 134 131 125 122 138 138 134 135 132 119 102 95 98 104 102 99 99 96 91 90 90 96 101 90 89 101 108 107 99 86 68 69 84 91 99 82 66 73 77 72 69 69 71 73 74 75 77 79 77
203 206 199 193 187 179 165 148 139 133 130 128 129 134 134 130 116 107 137 140 138 143 144 138 123 113 114 118 113 104 99 95 91 87 87 93 97 95 92 93 96 97 95 92 84 75 84 106 123 126 117 111 91 81 78 71 68 68 70 71 73 76 78
212 215 211 203 194 185 172 158 149 140 140 144 144 142 137 128 105 94 123 130 134 141 139 133 130 128 129 128 125 116 108 104 101 97 95 96 96 95 95 92 91 89 86 83 81 79 83 104 122 137 142 125 104 83 73 69 67 65 65 67 69 71 72
210 212 210 205 195 187 179 170 165 153 142 146 157 161 154 142 123 122 127 123 123 126 125 124 128 138 145 144 137 126 116 112 107 102 100 98 96 94 92 92 89 86 85 82 81 82 81 85 96 118 120 92 87 81 66 63 66 63 58 58 61 64 65
209 206 203 204 199 189 180 183 190 180 161 155 168 176 173 169 157 145 138 126 121 121 122 123 125 135 144 144 142 132 120 118 113 106 100 97 97 95 92 93 94 93 90 88 85 81 80 77 73 88 122 114 82 71 64 62 60 57 54 54 54 53 52
205 201 198 201 203 197 184 195 218 214 203 189 189 192 188 191 191 178 164 139 125 121 122 125 122 126 135 135 138 133 126 125 118 109 105 101 99 99 99 98 98 99 96 92 91 86 84 81 73 74 90 113 122 102 57 56 55 51 50 51 49 44 40
203 200 199 199 201 196 169 216 251 241 240 241 218 209 203 206 211 207 210 212 192 123 103 121 119 118 125 128 132 130 127 128 119 108 104 100 99 103 104 102 99 100 100 96 94 91 88 84 77 72 69 75 106 136 115 55 49 48 47 46 45 38 35
205 202 199 200 203 186 158 207 247 244 247 248 230 216 210 212 223 234 240 254 266 274 308 352 96 110 113 117 124 127 128 130 121 110 103 98 102 107 106 103 101 100 98 96 92 89 88 83 76 74 70 67 77 92 109 120 93 59 54 47 43 36 32
205 202 195 196 202 188 175 205 231 232 235 238 234 224 214 213 221 236 246 253 258 259 264 285 305 307 113 111 119 124 129 137 128 116 110 103 103 108 109 107 106 103 96 91 90 86 83 83 78 77 77 73 71 73 86 107 108 68 64 53 43 37 32
204 205 200 197 199 196 193 201 209 211 216 227 236 231 222 220 223 234 246 250 253 256 256 260 269 270 268 222 130 124 122 132 138 127 120 115 108 106 108 109 108 107 106 99 94 92 90 90 87 84 81 78 77 74 77 92 105 101 79 58 41 38 34
204 208 210 206 203 205 205 199 196 207 216 222 232 235 231 231 233 244 255 257 258 257 256 256 257 257 260 262 246 178 138 131 146 143 137 137 130 115 107 110 108 106 113 116 110 106 105 101 95 90 83 77 80 79 75 89 106 111 95 68 41 37 35
207 213 216 212 210 213 212 201 195 209 223 226 227 230 232 233 236 243 250 256 260 259 258 259 258 259 257 255 255 252 233 207 199 188 171 169 163 147 128 124 117 105 107 115 116 116 113 110 102 91 81 71 73 74 70 82 101 104 97 79 45 39 36
219 223 220 217 217 217 214 207 202 210 224 230 230 231 235 236 237 240 243 248 253 256 260 262 263 264 260 256 256 255 254 248 240 237 227 210 203 200 183 163 152 130 119 118 119 120 116 107 96 83 76 66 64 66 61 65 81 88 86 74 44 37 34
232 232 224 220 220 219 216 214 214 216 224 232 236 238 241 242 244 248 252 255 257 260 263 267 270 268 261 259 261 258 259 262 260 258 253 240 233 237 235 214 201 185 167 151 132 126 123 109 90 73 70 61 51 53 53 52 59 70 78 74 51 37 32
232 231 225 221 220 219 215 215 221 224 225 234 251 257 256 254 251 251 255 260 263 266 269 273 280 283 274 264 262 263 262 263 267 268 265 261 253 249 250 244 237 232 221 203 171 152 142 126 105 78 68 59 45 42 44 45 49 57 65 68 58 40 30
225 225 223 221 220 218 216 215 221 224 219 226 251 263 267 264 258 255 257 262 264 267 273 275 281 288 282 271 264 265 264 263 268 270 268 267 264 261 261 257 253 252 249 242 226 208 193 176 148 106 77 59 43 35 37 44 47 49 54 59 54 40 29
223 225 225 223 220 218 218 217 220 224 218 215 226 238 248 258 264 262 264 267 267 270 275 275 274 276 274 270 266 267 267 266 268 268 267 266 264 264 266 262 258 259 260 257 248 239 228 213 191 156 114 53 35 25 30 40 41 38 42 44 38 31 27
227 226 223 221 218 217 218 219 224 232 228 219 222 233 243 253 263 266 268 268 266 265 269 273 273 270 269 269 270 273 275 274 273 270 267 264 261 261 263 263 260 260 262 262 258 255 247 234 222 207 202 192 13 9 23 30 24 22 23 23 19 15 14
223 221 218 217 218 218 221 228 233 236 234 230 234 244 248 253 257 260 264 263 258 259 266 272 274 271 268 270 273 278 282 279 277 275 271 268 264 259 259 261 261 260 261 260 258 258 254 249 249 242 230 251 347 1 9 6 2 5 3 4 3 357 354
221 220 218 216 216 217 221 227 228 227 228 231 239 246 247 250 250 250 253 254 255 262 266 270 273 272 270 272 276 279 280 280 280 279 277 275 269 263 260 260 259 259 257 252 250 251 246 241 245 243 236 263 357 2 357 344 340 341 345 351 351 348 346
219 216 217 217 217 218 219 220 220 223 232 240 246 249 250 250 247 246 249 255 260 263 263 264 268 269 268 269 270 272 275 279 281 280 280 279 277 273 269 264 259 256 255 249 243 238 232 232 234 228 219 234 320 336 333 327 319 315 323 332 334 337 337
220 216 220 224 224 224 223 220 221 227 238 249 251 250 252 255 251 247 249 253 257 259 259 258 256 254 254 256 259 265 268 269 270 271 271 273 275 276 275 271 264 260 260 254 240 229 223 221 218 213 213 234 248 256 280 292 292 291 296 303 311 320 323
221 221 222 224 225 222 215 211 211 215 220 225 227 231 239 244 239 231 232 238 243 245 245 238 227 225 239 247 253 264 269 270 269 267 267 267 268 269 271 272 269 267 265 255 238 227 220 211 204 206 219 225 222 235 266 282 284 278 277 283 295 305 309
220 218 214 212 210 203 198 196 192 185 179 177 179 183 184 181 178 186 203 218 226 229 230 230 230 231 222 216 252 292 302 297 285 279 275 270 267 267 266 267 268 267 264 250 232 220 211 204 203 214 226 224 224 235 249 262 270 267 265 271 283 291 297
220 216 213 216 216 205 189 176 162 151 144 140 136 131 123 116 110 106 101 132 236 243 252 253 253 244 225 225 268 305 318 311 298 291 286 279 273 270 267 268 268 266 262 248 228 214 206 203 208 219 221 221 228 235 241 255 263 261 262 269 280 289 297
213 211 207 202 189 171 161 155 149 144 141 137 133 127 120 110 92 71 47 13 334 292 270 255 248 247 240 240 260 284 304 315 311 302 297 291 282 273 271 275 272 265 259 242 217 204 201 204 211 217 219 220 225 231 242 258 262 262 269 278 289 299 302
210 189 176 171 166 160 157 157 157 157 154 146 137 133 129 121 101 66 33 7 343 316 293 273 258 257 252 244 249 265 280 306 320 313 310 311 305 294 282 276 268 257 243 220 201 194 198 207 212 214 215 215 221 236 256 274 277 281 291 296 302 306 305
210 201 191 187 184 181 180 178 177 175 168 155 142 136 135 126 104 62 36 20 6 350 327 300 277 270 262 250 246 253 264 281 307 316 314 316 321 324 306 264 248 242 224 205 196 197 202 208 211 213 218 225 243 267 273 278 285 290 297 300 303 303 303
197 206 212 215 211 205 200 193 187 181 174 167 158 154 149 135 84 32 21 14 7 359 345 321 297 286 273 255 246 244 249 256 253 226 245 247 216 198 190 171 169 193 195 189 190 197 202 210 222 230 241 252 260 262 265 273 283 292 297 300 302 304 304
264 243 227 224 222 220 215 203 192 186 186 197 202 188 181 196 316 355 4 5 3 360 353 338 314 298 277 258 248 236 233 238 221 184 181 180 169 159 155 153 150 158 171 175 181 192 202 217 232 239 251 264 264 264 279 292 298 303 305 305 306 306 306
262 263 257 245 235 226 218 210 209 213 218 224 223 213 214 234 254 292 336 351 358 359 355 351 341 322 268 244 237 223 222 228 212 184 175 172 168 160 154 153 151 154 167 174 175 186 201 222 252 267 279 290 293 296 301 305 307 310 310 310 309 309 308
248 242 237 231 223 214 210 211 214 217 216 216 219 219 217 222 231 247 283 321 350 355 351 347 344 330 238 214 211 208 216 220 209 194 182 172 167 161 157 157 155 153 161 166 169 227 312 325 318 312 312 311 312 311 310 311 313 315 315 314 314 313 313
235 225 222 221 216 209 206 206 205 204 203 201 205 209 211 215 225 236 248 257 284 342 344 335 324 301 226 197 190 195 207 209 203 202 195 181 174 169 164 163 160 157 161 169 301 317 327 330 326 327 331 327 322 318 317 317 317 315 316 316 315 315 315
240 235 232 227 219 210 204 201 199 198 195 192 195 202 209 216 224 230 234 235 227 215 231 280 285 270 238 208 196 196 199 196 193 197 193 181 175 171 166 162 161 162 171 25 358 349 349 350 341 338 334 327 322 319 318 317 317 316 316 316 315 315 314
Height
817 818 819 820 821 822 823 823 823 824 826 827 828 828 828 828 829 828 828 828 828 828 828 828 828 829 829 830 830 831 831 832 832 832 832 833 833 833 834 834 835 835 835 835 836 837 838 841 844 843 842 843 841 841 840 840 841 841 842 843 843 844 844
819 819 820 821 821 822 823 823 824 825 826 827 828 829 829 829 829 829 829 829 829 829 829 830 830 830 831 831 831 831 832 832 832 832 832 832 833 833 833 834 835 836 836 836 836 837 837 841 845 845 844 843 842 842 841 841 841 841 842 842 843 843 843
819 820 821 822 822 823 824 824 824 825 826 827 828 829 830 830 830 830 830 830 829 830 830 830 831 831 832 832 832 832 832 832 832 832 832 832 833 833 833 834 835 836 836 836 837 838 838 840 843 845 845 844 844 844 843 842 842 842 842 842 842 843 843
818 819 820 822 822 823 824 825 825 826 826 827 829 829 830 831 831 831 830 830 830 830 831 831 832 832 833 833 833 833 833 833 832 832 832 832 833 833 834 835 836 836 836 837 838 839 839 840 842 844 845 845 846 846 846 845 844 843 843 843 843 844 844
818 819 820 821 822 823 824 825 825 826 827 828 829 830 831 831 832 832 831 831 831 832 832 832 833 833 833 834 834 834 834 834 833 833 833 833 834 834 835 836 836 837 837 838 839 839 839 840 841 843 845 846 847 847 847 847 846 845 845 845 845 845 845
818 819 821 822 822 823 825 825 826 827 828 829 830 831 832 832 833 833 833 833 833 833 833 833 834 834 834 835 835 835 835 835 834 834 834 834 835 835 836 837 837 838 838 839 839 840 840 840 841 842 844 846 846 847 847 847 847 847 847 847 847 847 847
818 819 821 822 823 824 825 826 827 828 829 830 831 832 832 833 834 834 834 834 834 835 835 835 835 835 835 835 836 836 836 836 835 834 834 834 835 836 836 837 837 838 839 839 840 840 840 841 841 842 843 845 846 847 848 848 848 848 849 849 849 848 848
817 819 820 822 823 824 826 827 828 829 830 831 832 833 833 834 835 835 836 836 836 837 836 836 836 836 836 836 836 836 836 836 835 835 835 835 835 836 836 837 837 838 839 840 840 840 840 841 841 841 842 844 847 848 849 850 850 850 851 851 850 849 849
817 819 820 822 824 825 826 828 829 830 831 832 833 834 835 835 836 837 838 838 839 839 839 839 838 837 837 836 836 836 836 836 836 835 835 835 835 836 837 837 838 838 839 840 840 841 841 841 842 842 842 843 845 848 850 851 851 852 853 852 851 851 850
818 819 821 822 824 826 827 828 830 831 832 833 834 835 836 837 837 838 839 840 840 841 841 841 840 840 839 838 838 838 837 837 837 836 836 836 837 837 838 838 839 839 840 841 841 841 842 842 843 843 843 843 844 846 848 851 853 853 853 852 852 852 851
817 819 821 822 825 826 827 829 830 831 832 833 834 835 836 837 838 839 839 841 842 842 843 842 842 842 841 840 840 839 839 839 839 839 838 838 838 839 839 840 840 841 841 842 842 842 843 843 843 843 844 844 844 845 847 850 853 854 853 853 852 852 852
816 819 820 822 824 826 827 828 830 831 832 833 834 835 836 837 838 839 839 841 841 842 843 843 843 843 842 842 842 841 841 841 841 840 840 840 840 840 841 841 842 842 843 843 843 843 844 844 844 844 844 845 845 846 846 848 851 853 854 853 853 853 852
815 818 819 820 823 825 826 827 828 830 832 833 834 835 836 837 837 838 839 840 841 842 843 843 843 843 843 843 843 843 843 843 842 842 841 842 842 842 842 842 843 843 844 844 844 845 845 845 845 845 846 846 846 847 847 848 850 853 854 854 853 853 852
813 816 818 819 822 824 826 826 827 830 831 832 834 835 836 836 837 838 839 840 841 842 843 843 843 843 843 843 844 843 844 844 844 843 843 843 843 843 843 843 844 844 844 845 845 845 846 846 846 846 847 847 847 847 848 848 850 852 853 854 853 853 852
813 815 818 819 821 823 825 825 826 828 830 832 833 834 835 836 836 837 838 840 841 842 843 843 843 844 843 843 843 843 844 844 844 844 844 844 844 844 844 844 845 845 845 846 846 846 847 847 847 847 847 847 847 848 848 848 849 851 852 853 853 852 852
812 815 817 818 820 822 823 824 825 827 829 831 832 833 834 835 835 837 838 839 840 841 842 843 843 843 843 843 843 843 843 844 844 844 844 844 845 845 845 845 845 846 846 846 846 847 847 847 847 848 848 848 848 848 848 848 849 850 851 851 852 851 851
812 814 816 817 819 821 823 824 824 826 828 829 831 832 833 834 835 837 838 838 840 840 841 842 843 843 843 843 843 842 842 843 843 843 844 844 844 845 845 845 846 846 846 846 846 847 847 847 848 848 848 848 848 848 848 848 848 849 850 850 851 850 850
812 814 815 816 818 820 821 823 824 825 827 829 831 833 834 835 835 836 837 838 839 839 840 840 842 843 844 843 842 842 842 842 842 843 843 843 844 844 845 845 846 846 846 846 846 846 847 847 847 848 848 848 848 848 849 848 848 849 849 849 850 850 850
812 813 814 815 817 819 820 822 823 824 825 828 831 832 833 834 834 835 837 837 838 838 838 839 840 843 844 844 842 842 841 841 841 842 842 843 843 843 844 844 845 845 846 846 846 846 846 846 846 847 847 848 848 848 848 848 848 848 848 849 849 849 849
811 812 813 814 816 818 819 821 822 822 823 824 826 828 829 831 833 834 835 835 836 837 837 837 838 840 842 842 842 840 840 840 840 840 841 841 842 843 843 843 844 844 845 845 845 845 846 846 846 846 846 847 847 848 848 847 847 847 847 847 848 848 848
811 811 812 814 815 817 818 819 819 820 822 823 824 826 827 829 831 832 833 834 835 836 836 836 837 838 838 839 840 839 838 838 838 839 839 839 840 841 842 842 842 843 843 844 844 845 845 845 845 845 846 846 846 847 847 847 847 847 846 846 847 847 847
810 811 812 813 814 816 817 817 818 820 821 822 823 824 826 826 828 830 831 832 833 834 835 835 835 836 836 836 837 837 836 837 837 837 837 837 838 839 840 840 841 841 842 842 843 844 844 845 845 845 845 846 846 846 847 847 846 846 846 846 846 846 846
809 810 811 812 813 815 816 817 818 819 820 821 821 822 824 825 826 828 829 831 832 832 832 833 833 834 834 834 835 835 835 835 835 836 836 836 836 836 837 838 839 839 840 841 842 843 844 844 844 845 845 845 846 846 846 847 846 846 846 845 845 845 845
808 808 809 811 812 813 815 816 817 818 819 819 820 821 822 823 824 826 828 829 830 830 831 831 831 832 833 833 833 833 833 833 834 834 834 834 834 834 835 836 837 837 838 838 840 841 842 843 843 844 844 844 845 845 846 846 846 846 846 845 845 845 845
807 808 809 810 811 812 814 815 816 817 817 817 818 819 821 822 823 825 826 827 828 828 829 829 830 831 831 831 831 831 831 832 832 832 832 832 832 832 833 833 834 835 835 836 838 839 840 841 842 843 843 844 844 845 845 845 846 846 846 845 845 845 845
806 807 808 809 810 811 812 813 814 815 815 816 817 818 820 821 822 823 825 826 826 826 827 828 829 829 829 830 830 830 830 830 831 831 830 830 830 831 831 831 832 832 833 834 835 837 838 839 841 842 842 843 843 844 845 844 844 845 845 845 845 845 845
806 807 808 809 809 810 810 811 812 813 815 816 817 818 819 820 821 822 823 824 824 825 825 826 826 827 828 828 828 829 829 829 829 829 829 829 828 828 829 829 830 830 831 832 834 835 836 838 839 840 841 842 842 843 843 843 843 844 844 844 844 844 844
807 808 808 808 809 809 810 811 812 813 815 815 816 818 818 819 820 821 822 822 822 823 823 824 825 825 826 827 827 827 828 828 828 827 827 827 827 827 827 828 828 829 830 831 832 834 835 837 838 839 840 841 841 842 842 842 842 842 843 843 843 843 843
807 808 808 808 809 809 810 811 812 813 815 815 817 818 818 819 820 820 821 821 822 822 823 823 824 824 825 825 826 826 826 826 826 826 826 825 825 826 826 826 827 828 829 830 832 834 835 836 837 838 839 840 840 840 840 840 841 841 841 841 841 841 842
808 808 809 809 810 811 811 812 813 814 814 815 816 817 818 819 820 821 821 822 822 823 823 823 823 823 824 824 825 825 825 825 825 825 825 825 825 825 825 826 827 828 829 830 832 834 835 836 837 838 838 839 839 839 839 839 840 840 840 840 840 840 840
809 810 810 810 811 811 812 813 813 814 815 815 816 817 818 819 820 821 822 822 822 822 822 822 822 822 823 823 824 824 824 824 824 824 825 825 825 826 826 826 827 828 829 831 832 834 835 835 836 837 837 838 838 838 838 839 839 839 839 839 839 839 839
810 810 810 811 811 812 813 813 813 814 815 815 816 817 818 819 819 820 820 820 821 821 821 821 821 821 822 822 823 823 824 824 824 824 825 826 826 827 827 828 829 829 830 832 833 834 835 835 836 836 836 837 837 837 838 838 838 838 838 838 838 838 838
809 810 810 811 811 812 813 813 813 814 814 815 816 816 817 817 818 819 819 819 820 820 820 820 820 820 821 821 822 822 823 824 824 824 825 826 827 828 828 829 830 830 831 832 833 834 834 834 835 835 835 836 836 837 837 837 837 837 837 837 836 836 836
807 808 808 809 810 811 812 812 813 813 814 814 815 815 816 816 817 818 818 819 819 819 819 819 819 820 820 820 821 822 823 824 824 824 826 827 828 828 829 829 830 831 831 832 833 833 834 834 834 835 835 835 836 836 836 836 835 835 835 835 835 835 834
805 806 806 807 808 809 810 811 811 812 812 813 814 814 815 815 816 817 818 818 818 818 818 819 819 819 820 820 821 821 823 823 824 825 826 827 828 829 830 830 831 831 832 833 833 833 834 834 835 834 834 834 834 835 835 835 834 834 834 833 833 832 832
803 804 804 805 805 806 807 808 809 810 811 812 812 813 813 814 815 816 816 817 817 817 818 818 819 819 819 820 820 821 822 823 824 825 826 827 828 829 830 831 831 832 833 833 833 834 834 834 834 834 834 834 834 834 834 833 833 833 832 832 831 830 830
801 802 802 802 803 803 804 805 806 807 808 809 810 811 812 813 813 814 815 816 816 816 817 817 818 818 819 819 820 821 822 823 824 825 826 827 828 829 830 831 831 832 833 833 833 833 833 834 834 834 833 833 833 833 833 832 832 832 831 831 830 829 828